Regional Weather Roundup
Issued by NWS Newport/Morehead, NC

Current Version | Previous Version | Graphics & Text | Print | Product List | Glossary Off
Versions: 1 2 3 4 5 6 7 8 9 10 11 12 13 14 15 16 17 18 19 20 21 22 23 24 25 26 27 28 29 30 31 32 33 34 35 36 37 38 39 40 41 42 43 44 45 46 47 48 49 50

000
ASUS42 KMHX 192010
RWRMHX
WEATHER ROUNDUP FOR EASTERN NORTH CAROLINA
NATIONAL WEATHER SERVICE NEWPORT/MOREHEAD CITY NC
300 PM EST FRI DEC 19 2014

NOTE: "FAIR" INDICATES FEW OR NO CLOUDS BELOW 12,000 FEET
WITH NO SIGNIFICANT WEATHER AND/OR OBSTRUCTIONS TO VISIBILITY

NCZ015>017-031-032-045>047-102-103-192100-
NORTH COAST

CITY           SKY/WX    TMP DP  RH WIND       PRES   REMARKS
EDENTON        SUNNY     47  29  50 N5        30.12S
ELIZABETH CITY SUNNY     50  28  42 CALM      30.12S
KITTY HAWK     CLEAR     43  31  64 N6        30.12R
MANTEO         SUNNY     43  32  64 N8        30.13R

$$

NCZ045>047-081-094-103-104-192100-
CENTRAL COAST

CITY           SKY/WX    TMP DP  RH WIND       PRES   REMARKS
FRISCO         SUNNY     47  34  60 NE6       30.12R
SWANQUARTER      N/A     52 N/A N/A NW2G8     30.09R

$$

NCZ095-097-098-100-101-192100-
SOUTHERN COAST

CITY           SKY/WX    TMP DP  RH WIND       PRES   REMARKS
BEAUFORT       SUNNY     54  32  43 NW7       30.11R
CEDAR ISLAND     N/A     48 N/A N/A NW5       30.15S
JACKSONVILLE   SUNNY     55  28  35 NW7       30.11R
PINEY ISLAND   CLEAR     50  31  48 NE8       30.12R
WILMINGTON     SUNNY     60  26  27 NW7       30.11R


$$

NCZ011>013-027>030-043-044-078>080-089-090>093-098-192100-
COASTAL PLAIN

CITY           SKY/WX    TMP DP  RH WIND       PRES   REMARKS
AHOSKIE        SUNNY     45  27  49 N3        30.14R
CLINTON        SUNNY     55  29  37 N5        30.13R
ELIZABETHTOWN  SUNNY     57  27  31 CALM      30.12R
GOLDSBORO      SUNNY     53  31  44 NW1       30.11R
GREENVILLE     SUNNY     48  30  49 CALM      30.14R
HAVELOCK       MOSUNNY   54  28  36 NW6       30.12R
KENANSVILLE    SUNNY     52  26  36 CALM      30.13R
KINSTON        SUNNY     50  30  46 N6        30.13R
NEW BERN       SUNNY     54  29  38 N7        30.12R
RICHLANDS      SUNNY     54  28  37 W5        30.12R
ROCKY MOUNT    SUNNY     50  27  40 NW7       30.13R
WASHINGTON     SUNNY     49  28  44 N5        30.13R
WHITEVILLE     SUNNY     58  26  29 N3        30.11S

$$

AMZ130-135-150-152-154-156-158-170-250-252-270-ANZ085-086-088-633-658-670-192100-
MARINE OBSERVATIONS

STATION/POSITION TIME  TEMP    WIND        PRES    WAVE   SWELL
                       AIR SEA DIR/SP/G            HT/PER HT/PER
                 (UTC) (F)     (DEG/KT/KT) (MB)    (FT/S) (FT/S)
CHESAPEAKE LIGHT 1900   39     350/ 12/ 16 1020.4
64 E VA BEACH    2000   42 54  330/ 16/ 19 1018.8    4/ 5
DUCK             2000   41 47   20/ 12/ 15 1019.1
2 E DUCK         2000      48                N/A     3/ 5
10 NE DUCK       2000      51                N/A     4/ 5
OREGON INLET     2000   44 50  360/  8/ 12 1019.9
13E OREGON INLT  2000      53                N/A     3/ 5
HATTERAS CG      2000   46 53   20/  7/  9 1020.2
DIAMOND BUOY     2000   48                 1020.0    3/ 8
17 S OCRACOKE    NOT AVBL
CAPE LOOKOUT     1900   51      30/  6/  7 1019.3
BEAUFORT LAB     2000   52 52  340/  5/  8 1018.3
30 SE NEW RIVER  1900   51 62  360/  6/ 10 1019.9
5 SE WRIGHTSVLE  NOT AVBL
225 S CAPE HAT   1942   67 73  360/  8/ 10 1017.9    3/ 8   3/ 8
41 SE CHARLESTON 2000   62 68   40/  6/  8 1018.6    2/10   2/10

$$


USA.gov is the U.S. government's official web portal to all federal, state and local government web resources and services.